EZY78NK LFPO-EGHI

Flight info

Callsign EZY78NK
Flight time 0h 47m
Altitude 24000
Route OPALE DCT KESAX DCT KUNAV N20 ELDAX
Aircraft A320/M-SDE3FGHIRWY/LB1

Departure

Time 2026-04-30 10:58
Airport Paris-Orly Airport (LFPO)

Arrival

Time 2026-04-30 11:46
Airport Southampton Airport (EGHI)
Time Latitude Longitude Altitude Speed Heading
2026-04-30 10:44 48.72839 2.35838 307 ft 0 kts 46°
2026-04-30 10:51 48.72831 2.35826 306 ft 4 kts 47°
2026-04-30 10:51 48.72813 2.35795 309 ft 4 kts 50°
2026-04-30 10:52 48.72797 2.35763 308 ft 4 kts 61°
2026-04-30 10:52 48.72790 2.35739 310 ft 4 kts 74°
2026-04-30 10:52 48.72782 2.35699 309 ft 4 kts 73°
2026-04-30 10:52 48.72775 2.35660 310 ft 4 kts 87°
2026-04-30 10:53 48.72779 2.35623 308 ft 4 kts 112°
2026-04-30 10:53 48.72793 2.35592 305 ft 4 kts 137°
2026-04-30 10:53 48.72816 2.35575 309 ft 4 kts 166°
2026-04-30 10:53 48.72822 2.35572 308 ft 0 kts 164°
2026-04-30 10:55 48.72785 2.35584 309 ft 8 kts 179°
2026-04-30 10:55 48.72754 2.35536 308 ft 6 kts 243°
2026-04-30 10:56 48.72694 2.35497 306 ft 14 kts 163°
2026-04-30 10:56 48.72594 2.35541 306 ft 16 kts 163°
2026-04-30 10:56 48.72479 2.35590 308 ft 18 kts 165°
2026-04-30 10:56 48.72356 2.35639 306 ft 17 kts 175°
2026-04-30 10:57 48.72242 2.35600 306 ft 16 kts 179°
2026-04-30 10:57 48.72129 2.35642 307 ft 18 kts 165°
2026-04-30 10:57 48.72029 2.35752 308 ft 19 kts 121°
2026-04-30 10:57 48.71963 2.35928 308 ft 20 kts 105°
2026-04-30 10:58 48.72023 2.36307 308 ft 70 kts 75°
2026-04-30 10:58 48.72214 2.37338 305 ft 131 kts 74°
2026-04-30 10:58 48.72492 2.38835 691 ft 149 kts 76°
2026-04-30 10:58 48.72765 2.40332 1560 ft 147 kts 76°
2026-04-30 10:59 48.73036 2.41826 2388 ft 148 kts 78°
2026-04-30 10:59 48.73314 2.43348 3150 ft 150 kts 80°
2026-04-30 10:59 48.73599 2.44906 3749 ft 163 kts 79°
2026-04-30 10:59 48.73912 2.46647 4101 ft 184 kts 80°
2026-04-30 11:00 48.74055 2.48727 4473 ft 208 kts 91°
2026-04-30 11:00 48.74123 2.51012 4958 ft 233 kts 90°
2026-04-30 11:00 48.74213 2.53580 5541 ft 252 kts 89°
2026-04-30 11:00 48.74233 2.56269 6417 ft 258 kts 101°
2026-04-30 11:01 48.73574 2.58780 7308 ft 261 kts 126°
2026-04-30 11:01 48.72211 2.60639 7992 ft 270 kts 151°
2026-04-30 11:01 48.70387 2.61336 8926 ft 276 kts 176°
2026-04-30 11:01 48.68481 2.60733 9887 ft 289 kts 203°
2026-04-30 11:02 48.66936 2.58746 10735 ft 302 kts 233°
2026-04-30 11:02 48.66220 2.55734 11565 ft 313 kts 263°
2026-04-30 11:02 48.66166 2.52327 11938 ft 337 kts 269°
2026-04-30 11:02 48.66230 2.48686 12456 ft 351 kts 271°
2026-04-30 11:03 48.66343 2.44959 13188 ft 359 kts 271°
2026-04-30 11:03 48.66312 2.41166 13954 ft 362 kts 262°
2026-04-30 11:03 48.65781 2.37444 14670 ft 363 kts 250°
2026-04-30 11:04 48.65265 2.29793 16084 ft 376 kts 277°
2026-04-30 11:04 48.65949 2.25958 16788 ft 381 kts 291°
2026-04-30 11:04 48.67160 2.22377 17477 ft 385 kts 299°
2026-04-30 11:04 48.68468 2.18877 18171 ft 389 kts 298°
2026-04-30 11:05 48.69807 2.15234 18796 ft 394 kts 298°
2026-04-30 11:05 48.71121 2.11626 19340 ft 399 kts 298°
2026-04-30 11:05 48.72460 2.07930 19917 ft 403 kts 298°
2026-04-30 11:05 48.73821 2.04166 20499 ft 408 kts 298°
2026-04-30 11:06 48.75188 2.00378 21040 ft 412 kts 298°
2026-04-30 11:06 48.76562 1.96575 21595 ft 416 kts 298°
2026-04-30 11:06 48.77970 1.92680 22140 ft 420 kts 298°
2026-04-30 11:06 48.79464 1.88854 22668 ft 424 kts 308°
2026-04-30 11:07 48.81510 1.85641 23161 ft 425 kts 325°
2026-04-30 11:07 48.84049 1.83397 23679 ft 422 kts 342°
2026-04-30 11:07 48.86864 1.82288 24030 ft 417 kts 358°
2026-04-30 11:07 48.89728 1.82347 24133 ft 403 kts 14°
2026-04-30 11:08 48.92328 1.83465 24152 ft 378 kts 27°
2026-04-30 11:08 48.94742 1.84967 24152 ft 373 kts 28°
2026-04-30 11:08 48.97141 1.86459 24152 ft 372 kts 28°
2026-04-30 11:08 48.99539 1.87942 24185 ft 372 kts 27°
2026-04-30 11:09 49.01940 1.89420 24191 ft 372 kts 27°
2026-04-30 11:09 49.04338 1.90892 24191 ft 372 kts 27°
2026-04-30 11:09 49.06706 1.92348 24187 ft 372 kts 27°
2026-04-30 11:09 49.09099 1.93825 24191 ft 371 kts 27°
2026-04-30 11:10 49.11360 1.95225 24192 ft 371 kts 27°
2026-04-30 11:10 49.13752 1.96708 24193 ft 371 kts 27°
2026-04-30 11:10 49.16140 1.98185 24192 ft 371 kts 27°
2026-04-30 11:10 49.18530 1.99663 24190 ft 371 kts 27°
2026-04-30 11:11 49.20918 2.01144 24163 ft 370 kts 27°
2026-04-30 11:11 49.23311 2.02628 24177 ft 370 kts 27°
2026-04-30 11:11 49.25702 2.04111 24182 ft 370 kts 27°
2026-04-30 11:11 49.28085 2.05591 24182 ft 370 kts 27°
2026-04-30 11:12 49.30474 2.07080 24180 ft 370 kts 28°
2026-04-30 11:12 49.32856 2.08569 24181 ft 370 kts 28°
2026-04-30 11:12 49.35242 2.10065 24182 ft 370 kts 28°
2026-04-30 11:12 49.37629 2.11560 24183 ft 370 kts 28°
2026-04-30 11:13 49.40027 2.13010 24186 ft 373 kts 23°
2026-04-30 11:13 49.42583 2.13852 24185 ft 380 kts 11°
2026-04-30 11:13 49.45251 2.13826 24186 ft 388 kts 357°
2026-04-30 11:13 49.47895 2.12888 24185 ft 394 kts 344°
2026-04-30 11:14 49.50433 2.11428 24179 ft 395 kts 343°
2026-04-30 11:14 49.53037 2.09923 24171 ft 395 kts 343°
2026-04-30 11:14 49.55608 2.08440 24175 ft 395 kts 343°
2026-04-30 11:14 49.58181 2.06959 24178 ft 395 kts 343°
2026-04-30 11:15 49.60751 2.05478 24182 ft 395 kts 343°
2026-04-30 11:15 49.63326 2.03997 24184 ft 395 kts 343°
2026-04-30 11:15 49.65903 2.02513 24186 ft 395 kts 343°
2026-04-30 11:15 49.68445 2.01045 24188 ft 395 kts 343°
2026-04-30 11:16 49.71015 1.99556 24193 ft 395 kts 343°
2026-04-30 11:16 49.73589 1.98056 24185 ft 395 kts 343°
2026-04-30 11:16 49.76160 1.96557 24190 ft 395 kts 343°
2026-04-30 11:16 49.78736 1.95055 24196 ft 395 kts 343°
2026-04-30 11:17 49.81305 1.93559 24198 ft 395 kts 343°
2026-04-30 11:17 49.83875 1.92063 24200 ft 395 kts 343°
2026-04-30 11:17 49.86451 1.90566 24203 ft 395 kts 343°
2026-04-30 11:17 49.89005 1.88980 24207 ft 397 kts 337°
2026-04-30 11:18 49.91378 1.86778 24209 ft 400 kts 326°
2026-04-30 11:18 49.95748 1.81390 24205 ft 401 kts 323°
2026-04-30 11:18 49.97935 1.78696 24203 ft 401 kts 323°
2026-04-30 11:19 50.00123 1.76004 24200 ft 402 kts 323°
2026-04-30 11:19 50.02315 1.73306 24201 ft 402 kts 323°
2026-04-30 11:19 50.04507 1.70598 24202 ft 402 kts 323°
2026-04-30 11:19 50.06693 1.67890 24203 ft 402 kts 323°
2026-04-30 11:20 50.08861 1.65133 24206 ft 402 kts 322°
2026-04-30 11:20 50.10986 1.62295 24202 ft 403 kts 321°
2026-04-30 11:20 50.13087 1.59412 24204 ft 403 kts 320°
2026-04-30 11:20 50.15183 1.56504 24213 ft 403 kts 320°
2026-04-30 11:21 50.17280 1.53608 24210 ft 403 kts 320°
2026-04-30 11:21 50.19387 1.50719 24211 ft 403 kts 320°
2026-04-30 11:21 50.21493 1.47838 24216 ft 403 kts 320°
2026-04-30 11:21 50.23600 1.44963 24217 ft 403 kts 320°
2026-04-30 11:22 50.25710 1.42083 24217 ft 403 kts 320°
2026-04-30 11:22 50.27816 1.39201 24220 ft 403 kts 320°
2026-04-30 11:22 50.29927 1.36313 24229 ft 403 kts 320°
2026-04-30 11:22 50.32004 1.33468 24223 ft 403 kts 320°
2026-04-30 11:23 50.34113 1.30577 24226 ft 403 kts 320°
2026-04-30 11:23 50.36223 1.27681 24222 ft 403 kts 320°
2026-04-30 11:23 50.40436 1.21878 24220 ft 403 kts 320°
2026-04-30 11:24 50.42540 1.18971 24215 ft 403 kts 320°
2026-04-30 11:24 50.44643 1.16054 24219 ft 403 kts 320°
2026-04-30 11:24 50.46736 1.13133 24220 ft 403 kts 317°
2026-04-30 11:25 50.49887 1.05941 24221 ft 402 kts 290°
2026-04-30 11:25 50.50667 1.01746 24218 ft 400 kts 277°
2026-04-30 11:25 50.50639 0.93130 24211 ft 394 kts 261°
2026-04-30 11:26 50.50082 0.84554 24209 ft 395 kts 260°
2026-04-30 11:26 50.49800 0.80269 24208 ft 395 kts 260°
2026-04-30 11:26 50.49516 0.75981 24207 ft 395 kts 260°
2026-04-30 11:27 50.49231 0.71680 24211 ft 395 kts 260°
2026-04-30 11:27 50.48977 0.67387 24211 ft 397 kts 264°
2026-04-30 11:27 50.49100 0.63038 24212 ft 400 kts 275°
2026-04-30 11:27 50.49517 0.58716 24212 ft 400 kts 276°
2026-04-30 11:28 50.50348 0.50069 24209 ft 401 kts 276°
2026-04-30 11:28 50.50757 0.45779 24015 ft 394 kts 276°
2026-04-30 11:28 50.51158 0.41534 23786 ft 391 kts 275°
2026-04-30 11:29 50.51550 0.37336 23403 ft 387 kts 275°
2026-04-30 11:29 50.51937 0.33157 22888 ft 385 kts 275°
2026-04-30 11:29 50.52700 0.24853 21901 ft 383 kts 275°
2026-04-30 11:30 50.53449 0.16606 20927 ft 380 kts 275°
2026-04-30 11:30 50.53823 0.12488 20444 ft 379 kts 275°
2026-04-30 11:30 50.54191 0.08444 19971 ft 378 kts 275°
2026-04-30 11:31 50.54563 0.04358 19503 ft 378 kts 275°
2026-04-30 11:31 50.54930 0.00275 19021 ft 377 kts 274°
2026-04-30 11:31 50.55294 -0.03799 18550 ft 377 kts 274°
2026-04-30 11:31 50.55655 -0.07877 18020 ft 376 kts 274°
2026-04-30 11:32 50.56013 -0.11935 17566 ft 373 kts 274°
2026-04-30 11:32 50.56369 -0.15955 17110 ft 370 kts 274°
2026-04-30 11:32 50.56721 -0.19951 16665 ft 368 kts 274°
2026-04-30 11:33 50.57417 -0.27891 15775 ft 364 kts 275°
2026-04-30 11:33 50.57758 -0.31829 15404 ft 361 kts 275°
2026-04-30 11:33 50.58098 -0.35737 14973 ft 360 kts 275°
2026-04-30 11:33 50.58636 -0.39582 14520 ft 361 kts 288°
2026-04-30 11:34 50.59753 -0.43106 14099 ft 362 kts 303°
2026-04-30 11:34 50.61379 -0.46091 13713 ft 358 kts 315°
2026-04-30 11:34 50.63135 -0.48870 13321 ft 355 kts 315°
2026-04-30 11:34 50.64878 -0.51629 12794 ft 356 kts 315°
2026-04-30 11:35 50.66615 -0.54377 12427 ft 352 kts 315°
2026-04-30 11:35 50.68217 -0.57275 12017 ft 348 kts 303°
2026-04-30 11:35 50.69345 -0.60623 11556 ft 346 kts 289°
2026-04-30 11:35 50.70084 -0.64216 11158 ft 343 kts 285°
2026-04-30 11:36 50.70806 -0.67795 10702 ft 342 kts 285°
2026-04-30 11:36 50.71528 -0.71353 10386 ft 337 kts 285°
2026-04-30 11:36 50.72222 -0.74768 10255 ft 324 kts 286°
2026-04-30 11:36 50.72900 -0.78104 9691 ft 316 kts 285°
2026-04-30 11:37 50.73566 -0.81397 9003 ft 313 kts 285°
2026-04-30 11:37 50.74221 -0.84644 8404 ft 307 kts 285°
2026-04-30 11:37 50.74865 -0.87843 8021 ft 306 kts 285°
2026-04-30 11:37 50.75503 -0.91031 7615 ft 304 kts 285°
2026-04-30 11:38 50.76135 -0.94208 7221 ft 302 kts 285°
2026-04-30 11:38 50.76760 -0.97365 6809 ft 301 kts 285°
2026-04-30 11:38 50.77385 -1.00510 6396 ft 299 kts 285°
2026-04-30 11:38 50.77844 -1.03683 5985 ft 294 kts 272°
2026-04-30 11:39 50.78028 -1.06882 5580 ft 291 kts 271°
2026-04-30 11:39 50.78206 -1.10067 5180 ft 290 kts 271°
2026-04-30 11:39 50.78383 -1.13204 4768 ft 281 kts 272°
2026-04-30 11:39 50.78550 -1.16158 4383 ft 270 kts 272°
2026-04-30 11:40 50.78718 -1.19123 4016 ft 262 kts 272°
2026-04-30 11:40 50.78879 -1.21993 3650 ft 260 kts 272°
2026-04-30 11:40 50.78983 -1.23859 3434 ft 254 kts 272°
2026-04-30 11:40 50.79133 -1.26533 3352 ft 235 kts 272°
2026-04-30 11:41 50.79273 -1.29041 3293 ft 223 kts 272°
2026-04-30 11:41 50.79405 -1.31426 3194 ft 215 kts 272°
2026-04-30 11:41 50.79532 -1.33773 3084 ft 213 kts 272°
2026-04-30 11:41 50.79659 -1.36104 2987 ft 213 kts 271°
2026-04-30 11:42 50.79785 -1.38433 2888 ft 212 kts 272°
2026-04-30 11:42 50.80219 -1.40637 2699 ft 209 kts 305°
2026-04-30 11:42 50.81260 -1.42069 2581 ft 192 kts 342°
2026-04-30 11:42 50.82498 -1.42467 2432 ft 176 kts 12°
2026-04-30 11:43 50.83646 -1.42012 2247 ft 169 kts 28°
2026-04-30 11:43 50.84766 -1.41392 2019 ft 171 kts 28°
2026-04-30 11:43 50.85877 -1.40778 1787 ft 167 kts 27°
2026-04-30 11:43 50.86950 -1.40179 1569 ft 164 kts 27°
2026-04-30 11:44 50.88011 -1.39586 1361 ft 159 kts 26°
2026-04-30 11:44 50.89003 -1.39035 1177 ft 144 kts 29°
2026-04-30 11:44 50.89906 -1.38530 994 ft 132 kts 29°
2026-04-30 11:44 50.90765 -1.38028 820 ft 131 kts 30°
2026-04-30 11:45 50.91639 -1.37600 659 ft 129 kts 27°
2026-04-30 11:45 50.92472 -1.37086 477 ft 129 kts 26°
2026-04-30 11:45 50.93331 -1.36629 264 ft 130 kts 28°
2026-04-30 11:45 50.94190 -1.36154 114 ft 131 kts 31°
2026-04-30 11:46 50.95012 -1.35684 33 ft 113 kts 21°
2026-04-30 11:46 50.95600 -1.35360 40 ft 64 kts 19°
2026-04-30 11:46 50.95812 -1.35255 38 ft 16 kts 355°
2026-04-30 11:46 50.95870 -1.35226 37 ft 6 kts 113°
2026-04-30 11:47 50.95817 -1.35242 38 ft 13 kts 199°
2026-04-30 11:47 50.95730 -1.35288 39 ft 13 kts 199°
2026-04-30 11:47 50.95657 -1.35328 42 ft 9 kts 199°
2026-04-30 11:47 50.95559 -1.35383 39 ft 23 kts 199°
2026-04-30 11:48 50.95389 -1.35468 34 ft 27 kts 196°
2026-04-30 11:48 50.95229 -1.35563 33 ft 25 kts 201°
2026-04-30 11:48 50.95093 -1.35641 34 ft 15 kts 200°
2026-04-30 11:48 50.95026 -1.35683 33 ft 6 kts 214°
2026-04-30 11:49 50.95023 -1.35744 36 ft 8 kts 289°
2026-04-30 11:49 50.95045 -1.35837 39 ft 7 kts 290°
2026-04-30 11:49 50.95054 -1.35895 41 ft 4 kts 279°
2026-04-30 11:49 50.95058 -1.35929 43 ft 5 kts 284°
2026-04-30 11:50 50.95064 -1.35956 44 ft 0 kts 289°
2026-04-30 11:50 50.95072 -1.35983 44 ft 0 kts 305°
2026-04-30 11:50 50.95074 -1.35984 44 ft 0 kts 325°